Wind_Speed
17 17 17 16 15 14 12 11 7 14 18 24 25 28 23 20 17 15 11 11 17 15 19 21 25 25 27 16 30 35 32 19 22 28 21 21 26 22 24 24 21 18 20 11
15 15 15 15 14 14 13 11 14 18 19 18 21 21 25 24 20 16 15 13 14 16 17 17 20 20 20 14 26 33 28 30 24 21 20 22 24 27 29 25 26 25 13 9
13 13 13 14 14 14 15 15 9 14 22 23 16 21 23 26 24 19 18 14 12 12 14 18 16 17 19 19 20 26 28 26 28 23 23 20 21 23 25 27 25 21 21 20
13 11 11 12 13 14 15 17 11 14 12 22 20 18 20 22 25 23 21 19 16 14 15 18 15 17 17 18 21 20 26 28 25 24 20 13 18 20 20 25 26 28 25 18
11 10 10 11 12 14 15 12 12 13 13 11 21 21 20 20 23 22 27 21 18 17 17 17 16 19 18 18 21 22 24 26 23 21 21 20 22 20 19 21 22 22 24 26
9 9 8 10 11 14 18 20 19 21 11 16 17 22 20 21 18 23 21 23 21 20 20 12 11 10 17 15 20 21 20 23 21 17 18 21 24 23 19 19 19 19 21 22
10 9 9 10 11 14 16 18 18 16 15 13 17 17 18 17 17 21 21 19 23 22 25 21 16 11 11 12 17 19 18 20 19 17 9 14 16 16 18 18 16 16 18 15
9 9 9 10 11 13 15 16 19 13 13 12 16 17 18 19 15 18 14 17 19 24 22 18 17 17 16 16 16 16 14 17 18 17 14 9 8 5 6 9 2 5 13 12
9 9 9 9 10 12 14 17 18 19 11 10 21 15 18 19 17 17 16 17 22 19 18 22 23 22 19 19 17 18 16 18 15 14 14 13 10 3 9 10 11 14 16 16
9 9 8 8 10 12 14 16 18 19 19 11 19 14 13 17 16 21 15 11 14 17 21 24 25 25 23 23 23 15 20 17 18 19 17 9 1 5 6 9 4 11 14 11
8 8 7 7 9 10 13 15 17 20 16 9 20 21 15 17 14 13 17 14 14 17 20 25 22 20 16 19 6 15 17 21 20 22 22 19 10 5 5 6 4 10 11 12
8 7 5 6 6 8 10 13 15 17 22 7 17 26 26 29 27 17 11 13 16 17 18 17 14 17 8 14 16 13 9 4 3 3 4 4 3 8 10 7 9 12 12 13
6 4 3 3 3 5 7 10 12 14 13 8 5 10 26 24 27 23 14 15 17 18 17 10 9 9 7 13 14 7 7 14 7 3 2 3 3 11 10 11 14 16 17 15
4 2 1 1 3 5 7 10 13 17 15 11 13 8 13 18 24 27 25 15 21 22 21 8 7 8 11 7 3 6 2 1 8 9 7 10 6 16 22 19 21 20 21 21
4 2 2 3 5 7 7 10 15 18 19 17 15 12 8 5 21 25 25 19 22 14 10 9 9 8 5 5 3 4 3 3 4 3 4 14 11 13 23 24 30 29 29 29
5 5 4 4 7 10 12 11 16 24 15 15 18 9 8 6 13 17 20 22 21 11 9 10 6 6 10 3 5 3 1 2 17 7 14 15 12 13 15 25 30 33 34 33
7 7 7 6 9 12 13 13 20 17 15 15 12 8 5 7 5 7 13 16 17 10 9 7 5 4 11 6 1 2 4 7 12 17 24 24 18 20 23 32 31 34 34 33
10 10 9 10 11 10 12 18 17 18 15 5 7 8 7 14 7 3 9 12 11 12 5 7 6 7 8 5 1 3 8 10 7 12 18 19 22 26 28 30 30 33 35 37
13 15 16 13 15 15 15 20 18 14 9 2 6 11 8 9 6 9 8 10 10 14 6 10 9 6 5 1 3 5 8 9 13 17 17 19 21 23 25 27 28 29 29 32
16 18 16 14 15 15 15 14 14 8 4 6 10 6 8 11 9 9 8 11 8 7 9 12 11 9 4 3 8 11 14 17 21 23 24 26 28 31 32 32 31 30 31 33
17 15 11 15 14 11 6 6 4 6 5 7 10 10 11 18 15 8 10 9 9 8 5 8 6 5 9 11 9 12 15 18 21 21 22 24 26 28 30 32 35 38 39 37
10 11 9 6 5 5 4 4 4 6 7 8 8 6 11 14 18 8 9 6 5 4 9 2 4 5 7 9 10 13 14 16 19 22 22 23 25 27 30 32 34 36 38 40
6 5 5 5 5 8 5 5 6 6 10 8 8 6 7 6 11 4 6 4 7 8 4 4 4 7 10 12 13 16 17 19 19 21 26 28 29 30 33 37 37 37 37 36
10 6 9 6 4 6 6 6 4 5 7 8 8 6 6 12 5 7 5 6 5 4 4 6 3 6 6 10 13 17 20 20 23 26 27 31 37 39 39 40 39 38 37 35
9 5 7 11 12 9 8 7 6 8 13 16 11 12 11 10 6 5 5 4 5 4 4 3 3 4 7 11 14 20 21 23 25 28 30 36 43 45 44 40 33 28 28 29
20 12 13 11 12 11 11 9 13 14 19 15 16 10 6 7 5 5 5 5 4 11 7 3 6 8 10 14 18 22 21 21 26 29 32 36 45 48 41 32 23 20 21 23
16 18 15 14 16 19 18 14 12 11 10 11 9 6 6 6 6 8 9 10 8 6 6 6 8 9 12 14 17 24 21 24 26 28 30 34 40 46 38 27 19 19 21 24
Wind_Direction
273 266 261 257 249 246 234 222 209 239 213 204 209 217 211 217 236 230 218 220 217 229 223 214 219 217 217 219 210 208 211 226 225 215 224 226 230 223 231 245 237 255 281 241
275 268 259 252 245 236 223 186 246 227 209 204 217 225 221 217 225 224 215 223 221 222 222 220 217 220 210 216 201 205 206 221 239 224 214 222 227 231 234 234 245 253 225 258
277 269 259 249 238 228 217 210 208 228 220 201 225 226 220 219 223 215 214 214 220 215 215 210 212 212 201 204 203 205 209 217 224 234 223 209 219 236 238 252 263 257 256 278
278 268 258 247 234 222 214 200 201 224 230 220 219 209 225 219 220 219 213 221 216 214 215 208 215 206 196 205 203 201 204 220 227 232 251 233 236 225 232 239 248 257 260 270
279 268 256 246 230 217 205 180 223 232 207 226 221 217 218 222 220 215 216 218 216 208 214 209 219 207 205 203 205 207 209 222 227 236 240 241 245 243 239 234 241 253 266 272
277 268 254 244 231 217 210 222 223 226 223 222 218 219 224 219 217 218 219 221 214 217 213 225 202 194 209 208 199 196 205 217 221 235 241 245 238 237 234 239 239 245 249 259
291 280 266 252 240 228 222 221 218 214 219 228 221 220 217 217 215 208 222 219 207 226 214 217 210 187 189 190 200 208 210 215 227 244 269 241 239 242 232 242 248 256 261 264
286 276 269 258 247 236 228 219 212 206 218 226 221 216 209 205 212 199 197 210 209 213 207 206 207 207 209 212 205 212 210 217 223 233 236 239 201 200 226 243 251 286 254 285
283 272 265 261 252 243 232 223 216 210 203 220 215 203 206 204 214 206 210 221 205 195 200 205 208 208 208 210 211 216 222 226 250 233 261 262 100 196 209 224 218 250 260 255
278 271 269 261 256 250 239 230 215 207 197 248 212 207 206 207 213 215 219 214 203 198 201 211 213 222 216 214 211 209 220 226 227 235 251 242 43 240 251 250 262 268 260 251
278 269 272 275 268 252 237 231 214 204 188 251 209 203 189 188 177 192 204 204 192 202 205 212 215 223 210 216 213 216 214 220 232 243 251 243 264 268 217 236 307 282 256 250
289 273 268 274 267 243 223 213 207 204 201 199 224 212 207 201 188 177 169 193 185 197 195 206 221 210 223 215 218 222 226 243 308 342 40 228 247 197 216 218 252 264 276 263
309 284 266 271 247 222 216 216 201 189 186 233 194 216 208 203 199 192 158 206 183 187 180 164 191 183 196 199 228 161 238 234 227 249 221 112 296 274 255 254 259 262 269 277
347 331 270 206 189 180 193 196 181 171 168 178 196 206 202 204 204 201 199 196 204 197 198 194 193 210 209 236 248 203 277 251 225 228 231 254 285 278 262 266 265 266 275 279
35 54 111 148 168 163 173 166 172 176 162 162 149 143 134 158 203 207 205 209 206 199 203 207 212 214 168 221 192 219 234 246 212 253 248 221 242 269 263 268 266 270 275 276
54 68 87 120 136 128 133 139 168 167 184 154 156 136 139 121 184 194 203 207 210 184 168 193 194 186 168 186 178 158 336 279 222 241 259 252 269 282 290 272 269 269 270 271
72 76 81 98 131 149 149 153 162 164 157 130 134 145 184 134 112 156 187 190 177 152 163 159 172 198 166 177 150 210 295 299 270 261 262 260 269 284 285 276 279 277 271 270
81 79 83 101 123 122 132 144 147 156 147 86 146 138 151 130 135 141 127 154 161 157 142 134 150 117 137 163 320 316 308 316 312 289 282 282 281 278 277 278 282 281 279 274
88 88 90 101 114 112 143 146 158 132 144 81 115 149 133 141 140 119 115 103 126 107 117 133 103 142 107 319 291 298 305 304 291 283 289 292 291 290 291 292 288 286 284 278
107 109 82 98 105 119 136 155 101 82 98 125 100 107 147 121 136 132 112 121 117 123 143 97 135 106 154 301 315 313 309 300 296 295 292 288 286 287 286 283 281 280 282 279
118 94 109 115 117 119 73 124 156 144 123 126 123 133 127 145 129 142 122 134 126 135 174 151 142 129 325 323 323 308 315 321 319 313 309 307 303 301 298 293 286 280 276 273
104 101 103 106 79 49 74 97 86 94 90 103 95 120 134 153 132 106 107 126 104 123 134 96 79 310 351 15 357 359 12 14 13 3 351 338 325 315 311 309 302 290 283 275
104 87 62 49 49 48 53 45 54 95 111 101 90 97 109 124 109 114 96 95 115 112 88 88 70 62 44 25 25 11 358 2 351 348 356 349 341 331 321 313 306 298 286 281
87 37 47 62 49 61 71 82 98 129 145 125 107 92 102 113 90 104 90 105 99 91 97 112 110 46 18 25 15 7 4 356 356 348 351 346 344 337 328 317 307 301 292 285
95 65 62 78 84 77 72 100 108 123 121 109 114 94 86 75 76 79 99 91 89 101 124 141 37 48 16 16 11 5 2 1 355 350 351 352 351 343 334 329 320 314 308 301
78 81 92 72 69 71 73 90 107 118 121 113 99 83 76 61 62 70 72 93 88 133 112 111 41 20 19 5 7 3 3 1 353 348 350 350 356 351 342 337 332 331 331 329
78 78 79 81 89 86 86 90 108 115 118 113 104 89 83 70 68 69 78 115 100 97 72 30 14 5 359 357 1 4 3 356 349 346 347 353 360 360 353 340 336 332 336 338
Height
3093 3094 3094 3095 3096 3098 3100 3102 3108 3105 3107 3111 3112 3114 3119 3124 3125 3125 3127 3127 3128 3129 3129 3131 3135 3136 3140 3143 3147 3151 3156 3157 3158 3158 3164 3168 3168 3170 3173 3170 3169 3165 3161 3159
3088 3088 3089 3090 3091 3093 3096 3099 3103 3100 3103 3106 3110 3113 3115 3119 3122 3123 3125 3126 3127 3128 3128 3129 3131 3133 3137 3139 3142 3146 3154 3156 3154 3155 3159 3163 3164 3166 3165 3164 3162 3161 3160 3171
3082 3083 3083 3084 3086 3088 3091 3095 3100 3096 3096 3100 3106 3109 3111 3114 3117 3119 3122 3124 3125 3126 3126 3127 3129 3131 3134 3137 3141 3144 3149 3150 3152 3148 3150 3154 3160 3163 3162 3160 3157 3156 3156 3161
3078 3078 3079 3079 3081 3084 3087 3090 3095 3093 3094 3096 3100 3104 3108 3110 3112 3115 3118 3121 3122 3124 3124 3125 3128 3129 3132 3136 3138 3142 3146 3146 3148 3148 3147 3150 3153 3155 3160 3160 3160 3157 3155 3157
3073 3074 3074 3075 3077 3079 3083 3086 3090 3088 3092 3095 3097 3099 3102 3105 3108 3111 3114 3117 3120 3122 3123 3124 3125 3127 3129 3132 3136 3139 3142 3143 3145 3147 3147 3148 3150 3151 3153 3155 3158 3158 3157 3155
3070 3070 3070 3071 3072 3074 3075 3077 3081 3083 3088 3090 3093 3095 3098 3101 3104 3107 3110 3115 3117 3119 3121 3121 3120 3121 3125 3128 3132 3136 3138 3140 3141 3141 3143 3144 3145 3147 3148 3151 3153 3154 3155 3156
3066 3066 3066 3067 3068 3069 3071 3073 3076 3079 3084 3088 3089 3092 3095 3098 3101 3104 3106 3110 3113 3113 3114 3119 3121 3123 3126 3127 3130 3132 3134 3137 3138 3138 3137 3136 3138 3139 3144 3148 3150 3151 3152 3154
3062 3062 3063 3063 3064 3065 3066 3068 3071 3075 3080 3085 3087 3088 3091 3095 3096 3100 3103 3106 3106 3108 3114 3120 3122 3124 3126 3127 3129 3130 3131 3133 3135 3135 3135 3134 3137 3140 3143 3144 3146 3145 3147 3149
3059 3059 3059 3059 3059 3060 3061 3063 3066 3070 3076 3082 3078 3084 3089 3092 3095 3098 3099 3099 3102 3106 3113 3116 3116 3117 3120 3124 3127 3129 3131 3133 3133 3134 3131 3130 3136 3138 3140 3142 3145 3143 3145 3146
3056 3056 3056 3055 3055 3055 3057 3059 3062 3066 3070 3075 3076 3083 3084 3088 3091 3095 3097 3098 3100 3105 3109 3110 3111 3113 3115 3118 3121 3126 3129 3131 3133 3134 3134 3132 3134 3136 3139 3143 3145 3140 3141 3142
3053 3052 3052 3051 3050 3051 3052 3054 3057 3061 3067 3070 3071 3072 3076 3082 3088 3093 3092 3098 3099 3104 3106 3108 3107 3109 3111 3114 3116 3121 3125 3129 3131 3132 3130 3130 3131 3134 3138 3139 3138 3137 3139 3139
3049 3049 3049 3048 3048 3048 3049 3051 3053 3057 3062 3063 3064 3068 3074 3078 3080 3082 3088 3095 3096 3097 3103 3105 3106 3107 3111 3113 3116 3122 3127 3126 3127 3129 3130 3128 3128 3131 3132 3133 3133 3134 3135 3136
3046 3046 3046 3045 3046 3046 3048 3049 3051 3056 3060 3067 3069 3068 3069 3073 3078 3083 3087 3088 3090 3095 3098 3102 3106 3109 3111 3115 3117 3120 3122 3124 3129 3131 3130 3129 3128 3127 3128 3129 3130 3131 3131 3131
3045 3044 3044 3044 3044 3045 3046 3048 3051 3056 3060 3063 3066 3067 3068 3071 3074 3077 3080 3085 3090 3096 3099 3104 3108 3112 3113 3116 3115 3120 3120 3124 3125 3129 3126 3127 3128 3123 3125 3125 3125 3126 3126 3126
3044 3043 3043 3043 3044 3044 3046 3048 3051 3054 3058 3060 3065 3069 3071 3070 3071 3075 3080 3084 3089 3094 3101 3105 3109 3108 3113 3114 3117 3122 3120 3119 3125 3124 3120 3123 3122 3120 3121 3119 3120 3121 3120 3120
3045 3044 3044 3044 3045 3045 3046 3050 3053 3056 3057 3053 3061 3066 3070 3070 3071 3075 3078 3082 3088 3094 3099 3102 3102 3103 3111 3115 3117 3118 3117 3116 3117 3118 3115 3117 3119 3118 3115 3113 3114 3114 3114 3115
3047 3046 3046 3046 3046 3047 3048 3051 3054 3057 3060 3061 3064 3067 3069 3070 3074 3076 3078 3081 3086 3094 3097 3101 3103 3106 3108 3114 3116 3115 3114 3111 3112 3112 3110 3112 3112 3110 3108 3107 3106 3105 3107 3108
3049 3048 3048 3048 3049 3050 3051 3054 3057 3060 3062 3065 3066 3068 3073 3072 3078 3079 3080 3082 3086 3090 3095 3099 3103 3105 3109 3112 3111 3111 3110 3107 3108 3106 3106 3105 3104 3102 3101 3099 3098 3096 3096 3096
3052 3052 3052 3053 3053 3054 3056 3059 3061 3062 3066 3062 3065 3068 3072 3074 3078 3080 3082 3086 3088 3092 3097 3099 3104 3106 3107 3107 3106 3105 3104 3104 3102 3099 3099 3098 3097 3095 3093 3091 3089 3087 3085 3084
3056 3056 3056 3058 3058 3059 3060 3063 3063 3067 3068 3066 3066 3069 3074 3076 3081 3083 3087 3090 3093 3098 3100 3100 3104 3106 3108 3106 3105 3103 3102 3100 3097 3094 3092 3089 3087 3084 3082 3079 3078 3076 3075 3073
3060 3060 3063 3063 3063 3063 3064 3065 3066 3067 3069 3069 3070 3072 3074 3077 3078 3084 3085 3091 3094 3098 3101 3101 3103 3107 3104 3104 3103 3100 3098 3095 3092 3089 3086 3083 3079 3075 3072 3069 3066 3063 3061 3060
3065 3064 3065 3065 3064 3064 3066 3066 3067 3068 3070 3071 3072 3073 3075 3077 3079 3085 3088 3092 3094 3097 3099 3101 3103 3104 3103 3102 3100 3097 3095 3091 3088 3084 3081 3077 3073 3069 3064 3060 3055 3051 3048 3045
3067 3068 3067 3068 3069 3068 3068 3069 3069 3070 3072 3074 3075 3077 3078 3080 3081 3087 3089 3092 3095 3098 3099 3102 3104 3103 3102 3100 3099 3096 3093 3091 3087 3083 3078 3074 3069 3063 3056 3049 3043 3038 3034 3032
3070 3070 3070 3071 3071 3072 3071 3072 3072 3073 3074 3075 3077 3079 3080 3081 3085 3086 3092 3094 3096 3098 3102 3103 3103 3102 3101 3099 3097 3095 3091 3088 3084 3079 3074 3069 3062 3054 3046 3037 3028 3022 3019 3017
3072 3073 3075 3075 3075 3074 3074 3073 3073 3074 3075 3076 3080 3082 3083 3084 3087 3088 3092 3096 3098 3101 3103 3103 3103 3101 3099 3098 3095 3093 3089 3084 3080 3076 3070 3064 3056 3045 3035 3025 3017 3012 3008 3005
3076 3078 3080 3079 3078 3077 3076 3076 3076 3077 3077 3080 3082 3083 3087 3088 3089 3091 3093 3096 3099 3101 3102 3102 3101 3099 3097 3096 3093 3090 3085 3081 3077 3072 3066 3060 3051 3038 3027 3020 3013 3009 3003 2999
3084 3084 3083 3082 3082 3081 3081 3080 3080 3081 3082 3082 3083 3086 3089 3091 3093 3095 3096 3098 3100 3100 3101 3100 3098 3097 3096 3094 3092 3087 3083 3079 3074 3068 3063 3056 3048 3039 3026 3017 3011 3006 3001 2996